Year,Month,Day,Hour,Minute,Value (Times are PST for temperature in C)
2013,07,16,00,00,16.70
2013,07,16,00,01,16.60
2013,07,16,00,02,16.60
2013,07,16,00,03,16.60
2013,07,16,00,04,16.60
2013,07,16,00,05,16.60
2013,07,16,00,06,16.60
2013,07,16,00,07,16.50
2013,07,16,00,08,16.40
2013,07,16,00,09,16.40
2013,07,16,00,10,16.40
2013,07,16,00,11,16.40
2013,07,16,00,12,16.40
2013,07,16,00,13,16.40
2013,07,16,00,14,16.40
2013,07,16,00,15,16.40
2013,07,16,00,16,16.40
2013,07,16,00,17,16.40
2013,07,16,00,18,16.40
2013,07,16,00,19,16.40
2013,07,16,00,20,16.40
2013,07,16,00,21,16.40
2013,07,16,00,22,16.40
2013,07,16,00,23,16.40
2013,07,16,00,24,16.40
2013,07,16,00,25,16.40
2013,07,16,00,26,16.40
2013,07,16,00,27,16.40
2013,07,16,00,28,16.40
2013,07,16,00,29,16.40
2013,07,16,00,30,16.40
2013,07,16,00,31,16.40
2013,07,16,00,32,16.40
2013,07,16,00,33,16.40
2013,07,16,00,34,16.40
2013,07,16,00,35,16.40
2013,07,16,00,36,16.40
2013,07,16,00,37,16.40
2013,07,16,00,38,16.40
2013,07,16,00,39,16.40
2013,07,16,00,40,16.40
2013,07,16,00,41,16.30
2013,07,16,00,42,16.30
2013,07,16,00,43,16.30
2013,07,16,00,44,16.30
2013,07,16,00,45,16.20
2013,07,16,00,46,16.20
2013,07,16,00,47,16.20
2013,07,16,00,48,16.10
2013,07,16,00,49,16.10
2013,07,16,00,50,16.10
2013,07,16,00,51,16.10
2013,07,16,00,52,16.00
2013,07,16,00,53,15.90
2013,07,16,00,54,15.90
2013,07,16,00,55,15.90
2013,07,16,00,56,15.90
2013,07,16,00,57,15.90
2013,07,16,00,58,15.80
2013,07,16,00,59,15.80
2013,07,16,01,00,15.80
2013,07,16,01,01,15.80
2013,07,16,01,02,15.80
2013,07,16,01,03,15.80
2013,07,16,01,04,15.80
2013,07,16,01,05,15.80
2013,07,16,01,06,15.70
2013,07,16,01,07,15.70
2013,07,16,01,08,15.70
2013,07,16,01,09,15.70
2013,07,16,01,10,15.60
2013,07,16,01,11,15.60
2013,07,16,01,12,15.60
2013,07,16,01,13,15.60
2013,07,16,01,14,15.60
2013,07,16,01,15,15.50
2013,07,16,01,16,15.50
2013,07,16,01,17,15.50
2013,07,16,01,18,15.50
2013,07,16,01,19,15.50
2013,07,16,01,20,15.40
2013,07,16,01,21,15.40
2013,07,16,01,22,15.40
2013,07,16,01,23,15.40
2013,07,16,01,24,15.40
2013,07,16,01,25,15.40
2013,07,16,01,26,15.30
2013,07,16,01,27,15.30
2013,07,16,01,28,15.30
2013,07,16,01,29,15.30
2013,07,16,01,30,15.30
2013,07,16,01,31,15.30
2013,07,16,01,32,15.20
2013,07,16,01,33,15.20
2013,07,16,01,34,15.20
2013,07,16,01,35,15.20
2013,07,16,01,36,15.20
2013,07,16,01,37,15.10
2013,07,16,01,38,15.10
2013,07,16,01,39,15.10
2013,07,16,01,40,15.10
2013,07,16,01,41,15.10
2013,07,16,01,42,15.10
2013,07,16,01,43,15.20
2013,07,16,01,44,15.20
2013,07,16,01,45,15.20
2013,07,16,01,46,15.20
2013,07,16,01,47,15.20
2013,07,16,01,48,15.30
2013,07,16,01,49,15.30
2013,07,16,01,50,15.30
2013,07,16,01,51,15.30
2013,07,16,01,52,15.30
2013,07,16,01,53,15.30
2013,07,16,01,54,15.30
2013,07,16,01,55,15.30
2013,07,16,01,56,15.30
2013,07,16,01,57,15.30
2013,07,16,01,58,15.30
2013,07,16,01,59,15.30
2013,07,16,02,00,15.30
2013,07,16,02,01,15.30
2013,07,16,02,02,15.30
2013,07,16,02,03,15.30
2013,07,16,02,37,15.10
2013,07,16,02,38,15.10
2013,07,16,02,39,15.10
2013,07,16,02,40,15.10
2013,07,16,02,41,15.10
2013,07,16,02,42,15.10
2013,07,16,02,43,15.00
2013,07,16,02,44,15.00
2013,07,16,02,45,15.00
2013,07,16,02,46,15.00
2013,07,16,02,47,14.90
2013,07,16,02,48,14.90
2013,07,16,02,49,14.90
2013,07,16,02,50,14.90
2013,07,16,02,51,14.90
2013,07,16,02,52,14.80
2013,07,16,02,53,14.80
2013,07,16,02,54,14.80
2013,07,16,02,55,14.80
2013,07,16,02,56,14.80
2013,07,16,02,57,14.80
2013,07,16,02,58,14.80
2013,07,16,02,59,14.80
2013,07,16,03,00,14.80
2013,07,16,03,01,14.80
2013,07,16,03,02,14.80
2013,07,16,03,03,14.80
2013,07,16,03,04,14.80
2013,07,16,03,05,14.80
2013,07,16,03,06,14.80
2013,07,16,03,07,14.80
2013,07,16,03,08,14.80
2013,07,16,03,09,14.80
2013,07,16,03,10,14.90
2013,07,16,03,11,14.90
2013,07,16,03,12,14.90
2013,07,16,03,13,14.90
2013,07,16,03,14,14.90
2013,07,16,03,15,14.90
2013,07,16,03,16,14.90
2013,07,16,03,17,14.90
2013,07,16,03,18,14.90
2013,07,16,03,19,14.80
2013,07,16,03,20,14.80
2013,07,16,03,21,14.80
2013,07,16,03,22,14.80
2013,07,16,03,23,14.80
2013,07,16,03,24,14.80
2013,07,16,03,25,14.70
2013,07,16,03,26,14.70
2013,07,16,03,27,14.70
2013,07,16,03,28,14.70
2013,07,16,03,29,14.60
2013,07,16,03,30,14.60
2013,07,16,03,31,14.60
2013,07,16,03,32,14.60
2013,07,16,03,33,14.60
2013,07,16,03,34,14.60
2013,07,16,03,35,14.60
2013,07,16,03,36,14.60
2013,07,16,03,37,14.50
2013,07,16,03,38,14.50
2013,07,16,03,39,14.50
2013,07,16,03,40,14.50
2013,07,16,03,41,14.50
2013,07,16,03,42,14.50
2013,07,16,03,43,14.50
2013,07,16,03,44,14.50
2013,07,16,03,45,14.50
2013,07,16,03,46,14.50
2013,07,16,03,47,14.50
2013,07,16,03,48,14.50
2013,07,16,03,49,14.50
2013,07,16,03,50,14.50
2013,07,16,03,51,14.40
2013,07,16,03,52,14.40
2013,07,16,03,53,14.40
2013,07,16,03,54,14.40
2013,07,16,03,55,14.40
2013,07,16,03,56,14.40
2013,07,16,03,57,14.40
2013,07,16,03,58,14.40
2013,07,16,03,59,14.40
2013,07,16,04,00,14.40
2013,07,16,04,01,14.40
2013,07,16,04,02,14.40
2013,07,16,04,03,14.40
2013,07,16,04,04,14.40
2013,07,16,04,05,14.40
2013,07,16,04,06,14.40
2013,07,16,04,07,14.40
2013,07,16,04,08,14.40
2013,07,16,04,09,14.40
2013,07,16,04,10,14.40
2013,07,16,04,11,14.40
2013,07,16,04,12,14.40
2013,07,16,04,13,14.30
2013,07,16,04,14,14.30
2013,07,16,04,15,14.30
2013,07,16,04,16,14.30
2013,07,16,04,17,14.30
2013,07,16,04,18,14.30
2013,07,16,04,19,14.30
2013,07,16,04,20,14.20
2013,07,16,04,21,14.20
2013,07,16,04,22,14.20
2013,07,16,04,23,14.20
2013,07,16,04,24,14.20
2013,07,16,04,25,14.20
2013,07,16,04,26,14.20
2013,07,16,04,27,14.20
2013,07,16,04,28,14.20
2013,07,16,04,29,14.20
2013,07,16,04,30,14.20
2013,07,16,04,31,14.20
2013,07,16,04,32,14.20
2013,07,16,04,33,14.20
2013,07,16,04,34,14.20
2013,07,16,04,35,14.20
2013,07,16,04,36,14.20
2013,07,16,04,37,14.20
2013,07,16,04,38,14.20
2013,07,16,04,39,14.20
2013,07,16,04,40,14.20
2013,07,16,04,41,14.20
2013,07,16,04,42,14.20
2013,07,16,04,43,14.20
2013,07,16,04,44,14.20
2013,07,16,04,45,14.20
2013,07,16,04,46,14.20
2013,07,16,04,47,14.20
2013,07,16,04,48,14.20
2013,07,16,04,49,14.20
2013,07,16,04,50,14.20
2013,07,16,04,51,14.20
2013,07,16,04,52,14.20
2013,07,16,04,53,14.20
2013,07,16,04,54,14.20
2013,07,16,04,55,14.20
2013,07,16,04,56,14.10
2013,07,16,04,57,14.10
2013,07,16,04,58,14.10
2013,07,16,04,59,14.10
2013,07,16,05,00,14.10
2013,07,16,05,01,14.10
2013,07,16,05,02,14.10
2013,07,16,05,03,14.00
2013,07,16,05,04,14.00
2013,07,16,05,05,14.00
2013,07,16,05,06,14.10
2013,07,16,05,07,14.10
2013,07,16,05,08,14.10
2013,07,16,05,09,14.10
2013,07,16,05,10,14.10
2013,07,16,05,11,14.10
2013,07,16,05,12,14.10
2013,07,16,05,13,14.10
2013,07,16,05,14,14.10
2013,07,16,05,15,14.10
2013,07,16,05,16,14.10
2013,07,16,05,17,14.10
2013,07,16,05,18,14.10
2013,07,16,05,19,14.10
2013,07,16,05,20,14.00
2013,07,16,05,21,14.00
2013,07,16,05,22,14.00
2013,07,16,05,23,14.00
2013,07,16,05,24,14.00
2013,07,16,05,25,14.10
2013,07,16,05,26,14.10
2013,07,16,05,27,14.10
2013,07,16,05,28,14.10
2013,07,16,05,29,14.10
2013,07,16,05,30,14.20
2013,07,16,05,31,14.20
2013,07,16,05,32,14.20
2013,07,16,05,33,14.30
2013,07,16,05,34,14.30
2013,07,16,05,35,14.30
2013,07,16,05,36,14.40
2013,07,16,05,37,14.40
2013,07,16,05,38,14.40
2013,07,16,05,39,14.30
2013,07,16,05,40,14.30
2013,07,16,05,41,14.30
2013,07,16,05,42,14.40
2013,07,16,05,43,14.40
2013,07,16,05,44,14.30
2013,07,16,05,45,14.30
2013,07,16,05,46,14.30
2013,07,16,05,47,14.30
2013,07,16,05,48,14.30
2013,07,16,05,49,14.30
2013,07,16,05,50,14.30
2013,07,16,05,51,14.20
2013,07,16,05,52,14.20
2013,07,16,05,53,14.20
2013,07,16,05,54,14.20
2013,07,16,05,55,14.20
2013,07,16,05,56,14.20
2013,07,16,05,57,14.20
2013,07,16,05,58,14.20
2013,07,16,05,59,14.20
2013,07,16,06,00,14.20
2013,07,16,06,01,14.20
2013,07,16,06,02,14.20
2013,07,16,06,03,14.20
2013,07,16,06,04,14.20
2013,07,16,06,05,14.20
2013,07,16,06,06,14.30
2013,07,16,06,07,14.30
2013,07,16,06,08,14.30
2013,07,16,06,09,14.30
2013,07,16,06,10,14.30
2013,07,16,06,11,14.30
2013,07,16,06,12,14.30
2013,07,16,06,13,14.30
2013,07,16,06,14,14.30
2013,07,16,06,15,14.40
2013,07,16,06,16,14.40
2013,07,16,06,17,14.40
2013,07,16,06,18,14.40
2013,07,16,06,19,14.40
2013,07,16,06,20,14.40
2013,07,16,06,21,14.50
2013,07,16,06,22,14.50
2013,07,16,06,23,14.50
2013,07,16,06,24,14.60
2013,07,16,06,25,14.60
2013,07,16,06,26,14.60
2013,07,16,06,27,14.60
2013,07,16,06,28,14.60
2013,07,16,06,29,14.70
2013,07,16,06,30,14.70
2013,07,16,06,31,14.80
2013,07,16,06,32,14.80
2013,07,16,06,33,14.80
2013,07,16,06,34,14.90
2013,07,16,06,35,14.90
2013,07,16,06,36,15.00
2013,07,16,06,37,15.00
2013,07,16,06,38,15.10
2013,07,16,06,39,15.10
2013,07,16,06,40,15.20
2013,07,16,06,41,15.20
2013,07,16,06,42,15.30
2013,07,16,06,43,15.30
2013,07,16,06,44,15.30
2013,07,16,06,45,15.30
2013,07,16,06,46,15.40
2013,07,16,06,47,15.50
2013,07,16,06,48,15.50
2013,07,16,06,49,15.60
2013,07,16,06,50,15.70
2013,07,16,06,51,15.80
2013,07,16,06,52,15.80
2013,07,16,06,53,15.90
2013,07,16,06,54,15.90
2013,07,16,06,55,16.00
2013,07,16,06,56,16.10
2013,07,16,06,57,16.10
2013,07,16,06,58,16.20
2013,07,16,06,59,16.30
2013,07,16,07,00,16.40
2013,07,16,07,01,16.40
2013,07,16,07,02,16.50
2013,07,16,07,03,16.60
2013,07,16,07,04,16.70
2013,07,16,07,05,16.80
2013,07,16,07,06,16.90
2013,07,16,07,07,17.00
2013,07,16,07,08,17.00
2013,07,16,07,09,17.20
2013,07,16,07,10,17.30
2013,07,16,07,11,17.40
2013,07,16,07,12,17.50
2013,07,16,07,13,17.50
2013,07,16,07,14,17.60
2013,07,16,07,15,17.70
2013,07,16,07,16,17.80
2013,07,16,07,17,17.80
2013,07,16,07,18,17.80
2013,07,16,07,19,17.80
2013,07,16,07,20,17.80
2013,07,16,07,21,17.80
2013,07,16,07,22,17.90
2013,07,16,07,23,17.90
2013,07,16,07,24,17.90
2013,07,16,07,25,17.90
2013,07,16,07,26,17.90
2013,07,16,07,27,17.90
2013,07,16,07,28,17.90
2013,07,16,07,29,17.90
2013,07,16,07,30,18.00
2013,07,16,07,31,18.10
2013,07,16,07,32,18.20
2013,07,16,07,33,18.20
2013,07,16,07,34,18.40
2013,07,16,07,35,18.50
2013,07,16,07,36,18.60
2013,07,16,07,37,18.80
2013,07,16,07,38,18.90
2013,07,16,07,39,18.90
2013,07,16,07,40,19.10
2013,07,16,07,41,19.10
2013,07,16,07,42,19.30
2013,07,16,07,43,19.30
2013,07,16,07,44,19.40
2013,07,16,07,45,19.50
2013,07,16,07,46,19.50
2013,07,16,07,47,19.60
2013,07,16,07,48,19.70
2013,07,16,07,49,19.70
2013,07,16,07,50,19.70
2013,07,16,07,51,19.70
2013,07,16,07,52,19.80
2013,07,16,07,53,19.90
2013,07,16,07,54,19.90
2013,07,16,07,55,19.90
2013,07,16,07,56,20.00
2013,07,16,07,57,20.10
2013,07,16,07,58,20.20
2013,07,16,07,59,20.20
2013,07,16,08,00,20.30
2013,07,16,08,01,20.40
2013,07,16,08,02,20.50
2013,07,16,08,03,20.60
2013,07,16,08,04,20.70
2013,07,16,08,05,20.80
2013,07,16,08,06,20.80
2013,07,16,08,07,20.90
2013,07,16,08,08,21.00
2013,07,16,08,09,21.10
2013,07,16,08,10,21.20
2013,07,16,08,11,21.30
2013,07,16,08,12,21.40
2013,07,16,08,13,21.50
2013,07,16,08,14,21.60
2013,07,16,08,15,21.60
2013,07,16,08,16,21.60
2013,07,16,08,17,21.60
2013,07,16,08,18,21.60
2013,07,16,08,19,21.60
2013,07,16,08,20,21.60
2013,07,16,08,21,21.70
2013,07,16,08,22,21.80
2013,07,16,08,23,21.90
2013,07,16,08,24,22.00
2013,07,16,08,25,22.00
2013,07,16,08,26,22.10
2013,07,16,08,27,22.10
2013,07,16,08,28,22.20
2013,07,16,08,29,22.20
2013,07,16,08,30,22.30
2013,07,16,08,31,22.40
2013,07,16,08,32,22.50
2013,07,16,08,33,22.60
2013,07,16,08,34,22.60
2013,07,16,08,35,22.70
2013,07,16,08,36,22.90
2013,07,16,08,37,23.00
2013,07,16,08,38,23.10
2013,07,16,08,39,23.20
2013,07,16,08,40,23.30
2013,07,16,08,41,23.40
2013,07,16,08,42,23.50
2013,07,16,08,43,23.60
2013,07,16,08,44,23.70
2013,07,16,08,45,23.70
2013,07,16,08,46,23.80
2013,07,16,08,47,23.80
2013,07,16,08,48,23.90
2013,07,16,08,49,24.00
2013,07,16,08,50,24.10
2013,07,16,08,51,24.10
2013,07,16,08,52,24.10
2013,07,16,08,53,24.20
2013,07,16,08,54,24.20
2013,07,16,08,55,24.30
2013,07,16,08,56,24.30
2013,07,16,08,57,24.40
2013,07,16,08,58,24.50
2013,07,16,08,59,24.50
2013,07,16,09,00,24.60
2013,07,16,09,01,24.70
2013,07,16,09,02,24.80
2013,07,16,09,03,24.80
2013,07,16,09,04,24.90
2013,07,16,09,05,24.90
2013,07,16,09,06,25.00
2013,07,16,09,07,25.00
2013,07,16,09,08,25.00
2013,07,16,09,09,25.00
2013,07,16,09,10,25.10
2013,07,16,09,11,25.10
2013,07,16,09,12,25.10
2013,07,16,09,13,25.20
2013,07,16,09,14,25.20
2013,07,16,09,15,25.20
2013,07,16,09,16,25.30
2013,07,16,09,17,25.30
2013,07,16,09,18,25.40
2013,07,16,09,19,25.40
2013,07,16,09,20,25.50
2013,07,16,09,21,25.50
2013,07,16,09,22,25.50
2013,07,16,09,23,25.60
2013,07,16,09,24,25.60
2013,07,16,09,25,25.60
2013,07,16,09,26,25.60
2013,07,16,09,27,25.60
2013,07,16,09,28,25.70
2013,07,16,09,29,25.70
2013,07,16,09,30,25.70
2013,07,16,09,31,25.80
2013,07,16,09,32,25.80
2013,07,16,09,33,25.80
2013,07,16,09,34,25.90
2013,07,16,09,35,25.90
2013,07,16,09,36,26.00
2013,07,16,09,37,26.00
2013,07,16,09,38,26.10
2013,07,16,09,39,26.10
2013,07,16,09,40,26.20
2013,07,16,09,41,26.20
2013,07,16,09,42,26.20
2013,07,16,09,43,26.30
2013,07,16,09,44,26.30
2013,07,16,09,45,26.30
2013,07,16,09,46,26.30
2013,07,16,09,47,26.30
2013,07,16,09,48,26.30
2013,07,16,09,49,26.30
2013,07,16,09,50,26.30
2013,07,16,09,51,26.30
2013,07,16,09,52,26.30
2013,07,16,09,53,26.30
2013,07,16,09,54,26.30
2013,07,16,09,55,26.30
2013,07,16,09,56,26.30
2013,07,16,09,57,26.30
2013,07,16,09,58,26.30
2013,07,16,09,59,26.30
2013,07,16,10,00,26.30
2013,07,16,10,01,26.30
2013,07,16,10,02,26.30
2013,07,16,10,03,26.30
2013,07,16,10,04,26.30
2013,07,16,10,05,26.40
2013,07,16,10,06,26.40
2013,07,16,10,07,26.40
2013,07,16,10,08,26.40
2013,07,16,10,09,26.40
2013,07,16,10,10,26.40
2013,07,16,10,11,26.50
2013,07,16,10,12,26.60
2013,07,16,10,13,26.60
2013,07,16,10,14,26.60
2013,07,16,10,15,26.60
2013,07,16,10,16,26.60
2013,07,16,10,17,26.60
2013,07,16,10,18,26.60
2013,07,16,10,19,26.60
2013,07,16,10,20,26.60
2013,07,16,10,21,26.60
2013,07,16,10,22,26.70
2013,07,16,10,23,26.70
2013,07,16,10,24,26.80
2013,07,16,10,25,26.80
2013,07,16,10,26,26.90
2013,07,16,10,27,26.90
2013,07,16,10,28,27.00
2013,07,16,10,29,27.10
2013,07,16,10,30,27.10
2013,07,16,10,31,27.20
2013,07,16,10,32,27.20
2013,07,16,10,33,27.20
2013,07,16,10,34,27.30
2013,07,16,10,35,27.30
2013,07,16,10,36,27.30
2013,07,16,10,37,27.30
2013,07,16,10,38,27.30
2013,07,16,10,39,27.30
2013,07,16,10,40,27.30
2013,07,16,10,41,27.30
2013,07,16,10,42,27.30
2013,07,16,10,43,27.30
2013,07,16,10,44,27.30
2013,07,16,10,45,27.30
2013,07,16,10,46,27.30
2013,07,16,10,47,27.40
2013,07,16,10,48,27.60
2013,07,16,10,49,27.60
2013,07,16,10,50,27.60
2013,07,16,10,51,27.60
2013,07,16,10,52,27.50
2013,07,16,10,53,27.40
2013,07,16,10,54,27.30
2013,07,16,10,55,27.30
2013,07,16,10,56,27.30
2013,07,16,10,57,27.30
2013,07,16,10,58,27.30
2013,07,16,10,59,27.40
2013,07,16,11,00,27.40
2013,07,16,11,01,27.40
2013,07,16,11,02,27.40
2013,07,16,11,03,27.40
2013,07,16,11,04,27.40
2013,07,16,11,05,27.40
2013,07,16,11,06,27.40
2013,07,16,11,07,27.40
2013,07,16,11,08,27.60
2013,07,16,11,09,27.60
2013,07,16,11,10,27.70
2013,07,16,11,11,27.90
2013,07,16,11,12,27.90
2013,07,16,11,13,27.90
2013,07,16,11,14,27.90
2013,07,16,11,15,27.90
2013,07,16,11,16,27.90
2013,07,16,11,17,27.90
2013,07,16,11,18,27.90
2013,07,16,11,19,27.90
2013,07,16,11,20,27.90
2013,07,16,11,21,28.00
2013,07,16,11,22,28.00
2013,07,16,11,23,28.10
2013,07,16,11,24,28.10
2013,07,16,11,25,28.10
2013,07,16,11,26,28.10
2013,07,16,11,27,28.20
2013,07,16,11,28,28.20
2013,07,16,11,29,28.20
2013,07,16,11,30,28.20
2013,07,16,11,31,28.20
2013,07,16,11,32,28.30
2013,07,16,11,33,28.30
2013,07,16,11,34,28.30
2013,07,16,11,35,28.30
2013,07,16,11,36,28.30
2013,07,16,11,37,28.30
2013,07,16,11,38,28.30
2013,07,16,11,39,28.30
2013,07,16,11,40,28.40
2013,07,16,11,41,28.40
2013,07,16,11,42,28.50
2013,07,16,11,43,28.60
2013,07,16,11,44,28.60
2013,07,16,11,45,28.70
2013,07,16,11,46,28.70
2013,07,16,11,47,28.80
2013,07,16,11,48,28.80
2013,07,16,11,49,28.80
2013,07,16,11,50,28.90
2013,07,16,11,51,28.90
2013,07,16,11,52,28.90
2013,07,16,11,53,28.90
2013,07,16,11,54,28.90
2013,07,16,11,55,28.90
2013,07,16,11,56,29.00
2013,07,16,11,57,29.10
2013,07,16,11,58,29.20
2013,07,16,11,59,29.30
2013,07,16,12,00,29.30
2013,07,16,12,01,29.30
2013,07,16,12,02,29.40
2013,07,16,12,03,29.40
2013,07,16,12,04,29.40
2013,07,16,12,05,29.30
2013,07,16,12,06,29.30
2013,07,16,12,07,29.20
2013,07,16,12,08,29.10
2013,07,16,12,09,29.10
2013,07,16,12,10,29.10
2013,07,16,12,11,29.10
2013,07,16,12,12,29.20
2013,07,16,12,13,29.20
2013,07,16,12,14,29.20
2013,07,16,12,15,29.30
2013,07,16,12,16,29.30
2013,07,16,12,17,29.30
2013,07,16,12,18,29.30
2013,07,16,12,19,29.40
2013,07,16,12,20,29.50
2013,07,16,12,21,29.60
2013,07,16,12,22,29.70
2013,07,16,12,23,29.80
2013,07,16,12,24,29.90
2013,07,16,12,25,30.00
2013,07,16,12,26,30.10
2013,07,16,12,27,30.20
2013,07,16,12,28,30.20
2013,07,16,12,29,30.20
2013,07,16,12,30,30.20
2013,07,16,12,31,30.10
2013,07,16,12,32,30.10
2013,07,16,12,33,30.10
2013,07,16,12,34,30.10
2013,07,16,12,35,30.10
2013,07,16,12,36,30.10
2013,07,16,12,37,30.00
2013,07,16,12,38,29.90
2013,07,16,12,39,29.90
2013,07,16,12,40,29.90
2013,07,16,12,41,30.00
2013,07,16,12,42,30.00
2013,07,16,12,43,29.90
2013,07,16,12,44,29.90
2013,07,16,12,45,29.80
2013,07,16,12,46,29.80
2013,07,16,12,47,29.70
2013,07,16,12,48,29.70
2013,07,16,12,49,29.70
2013,07,16,12,50,29.70
2013,07,16,12,51,29.70
2013,07,16,12,52,29.70
2013,07,16,12,53,29.70
2013,07,16,12,54,29.70
2013,07,16,12,55,29.70
2013,07,16,12,56,29.80
2013,07,16,12,57,29.90
2013,07,16,12,58,29.90
2013,07,16,12,59,30.00
2013,07,16,13,00,30.10
2013,07,16,13,01,30.10
2013,07,16,13,02,30.20
2013,07,16,13,03,30.20
2013,07,16,13,04,30.20
2013,07,16,13,05,30.20
2013,07,16,13,06,30.10
2013,07,16,13,07,30.10
2013,07,16,13,08,30.00
2013,07,16,13,09,29.90
2013,07,16,13,10,29.90
2013,07,16,13,11,29.90
2013,07,16,13,12,29.90
2013,07,16,13,13,29.80
2013,07,16,13,14,29.80
2013,07,16,13,15,29.80
2013,07,16,13,16,29.70
2013,07,16,13,17,29.70
2013,07,16,13,18,29.60
2013,07,16,13,19,29.60
2013,07,16,13,20,29.50
2013,07,16,13,21,29.50
2013,07,16,13,22,29.60
2013,07,16,13,23,29.60
2013,07,16,13,24,29.70
2013,07,16,13,25,29.70
2013,07,16,13,26,29.80
2013,07,16,13,27,29.80
2013,07,16,13,28,29.90
2013,07,16,13,29,29.90
2013,07,16,13,30,29.90
2013,07,16,13,31,29.90
2013,07,16,13,32,29.90
2013,07,16,13,33,29.90
2013,07,16,13,34,30.00
2013,07,16,13,35,30.00
2013,07,16,13,36,29.90
2013,07,16,13,37,29.90
2013,07,16,13,38,29.90
2013,07,16,13,39,29.80
2013,07,16,13,40,29.80
2013,07,16,13,41,29.80
2013,07,16,13,42,29.80
2013,07,16,13,43,29.80
2013,07,16,13,44,29.80
2013,07,16,13,45,29.80
2013,07,16,13,46,29.70
2013,07,16,13,47,29.70
2013,07,16,13,48,29.70
2013,07,16,13,49,29.60
2013,07,16,13,50,29.50
2013,07,16,13,51,29.40
2013,07,16,13,52,29.40
2013,07,16,13,53,29.40
2013,07,16,13,54,29.50
2013,07,16,13,55,29.60
2013,07,16,13,56,29.60
2013,07,16,13,57,29.60
2013,07,16,13,58,29.60
2013,07,16,13,59,29.60
2013,07,16,14,00,29.60
2013,07,16,14,01,29.60
2013,07,16,14,02,29.40
2013,07,16,14,03,28.70
2013,07,16,14,04,27.90
2013,07,16,14,05,27.30
2013,07,16,14,06,26.90
2013,07,16,14,07,26.30
2013,07,16,14,08,25.80
2013,07,16,14,09,25.30
2013,07,16,14,10,24.90
2013,07,16,14,11,24.60
2013,07,16,14,12,24.40
2013,07,16,14,13,24.10
2013,07,16,14,14,23.90
2013,07,16,14,15,23.60
2013,07,16,14,16,23.30
2013,07,16,14,17,23.10
2013,07,16,14,18,22.80
2013,07,16,14,19,22.60
2013,07,16,14,20,22.50
2013,07,16,14,21,22.50
2013,07,16,14,22,22.50
2013,07,16,14,23,22.40
2013,07,16,14,24,22.40
2013,07,16,14,25,22.30
2013,07,16,14,26,22.30
2013,07,16,14,27,22.40
2013,07,16,14,28,22.40
2013,07,16,14,29,22.40
2013,07,16,14,30,22.40
2013,07,16,14,31,22.40
2013,07,16,14,32,22.40
2013,07,16,14,33,22.50
2013,07,16,14,34,22.50
2013,07,16,14,35,22.50
2013,07,16,14,36,22.50
2013,07,16,14,37,22.60
2013,07,16,14,38,22.60
2013,07,16,14,39,22.40
2013,07,16,14,40,22.30
2013,07,16,14,41,22.30
2013,07,16,14,42,22.20
2013,07,16,14,43,22.20
2013,07,16,14,44,22.20
2013,07,16,14,45,22.20
2013,07,16,14,46,22.20
2013,07,16,14,47,22.20
2013,07,16,14,48,22.20
2013,07,16,14,49,22.20
2013,07,16,14,50,22.30
2013,07,16,14,51,22.30
2013,07,16,14,52,22.30
2013,07,16,14,53,22.30
2013,07,16,14,54,22.30
2013,07,16,14,55,22.40
2013,07,16,14,56,22.50
2013,07,16,14,57,22.60
2013,07,16,14,58,22.60
2013,07,16,14,59,22.60
2013,07,16,15,00,22.70
2013,07,16,15,01,22.70
2013,07,16,15,02,22.70
2013,07,16,15,03,22.80
2013,07,16,15,04,22.80
2013,07,16,15,05,22.90
2013,07,16,15,06,22.90
2013,07,16,15,07,23.10
2013,07,16,15,08,23.10
2013,07,16,15,09,23.20
2013,07,16,15,10,23.30
2013,07,16,15,11,23.30
2013,07,16,15,12,23.30
2013,07,16,15,13,23.30
2013,07,16,15,14,23.40
2013,07,16,15,15,23.50
2013,07,16,15,16,23.60
2013,07,16,15,17,23.70
2013,07,16,15,18,23.80
2013,07,16,15,19,24.00
2013,07,16,15,20,24.10
2013,07,16,15,21,24.20
2013,07,16,15,22,24.40
2013,07,16,15,23,24.50
2013,07,16,15,24,24.70
2013,07,16,15,25,24.80
2013,07,16,15,26,24.80
2013,07,16,15,27,24.80
2013,07,16,15,28,24.80
2013,07,16,15,29,24.80
2013,07,16,15,30,24.70
2013,07,16,15,31,24.60
2013,07,16,15,32,24.60
2013,07,16,15,33,24.60
2013,07,16,15,34,24.70
2013,07,16,15,35,24.70
2013,07,16,15,36,24.80
2013,07,16,15,37,24.90
2013,07,16,15,38,24.90
2013,07,16,15,39,24.90
2013,07,16,15,40,25.00
2013,07,16,15,41,25.10
2013,07,16,15,42,25.20
2013,07,16,15,43,25.30
2013,07,16,15,44,25.40
2013,07,16,15,45,25.60
2013,07,16,15,46,25.70
2013,07,16,15,47,25.70
2013,07,16,15,48,25.80
2013,07,16,15,49,25.90
2013,07,16,15,50,25.90
2013,07,16,15,51,26.00
2013,07,16,15,52,26.10
2013,07,16,15,53,26.10
2013,07,16,15,54,26.20
2013,07,16,15,55,26.30
2013,07,16,15,56,26.30
2013,07,16,15,57,26.40
2013,07,16,15,58,26.40
2013,07,16,15,59,26.50
2013,07,16,16,00,26.60
2013,07,16,16,01,26.60
2013,07,16,16,02,26.60
2013,07,16,16,03,26.60
2013,07,16,16,04,26.60
2013,07,16,16,05,26.60
2013,07,16,16,06,26.60
2013,07,16,16,07,26.70
2013,07,16,16,08,26.70
2013,07,16,16,09,26.70
2013,07,16,16,10,26.70
2013,07,16,16,11,26.70
2013,07,16,16,12,26.60
2013,07,16,16,13,26.60
2013,07,16,16,14,26.60
2013,07,16,16,15,26.60
2013,07,16,16,16,26.60
2013,07,16,16,17,26.60
2013,07,16,16,18,26.60
2013,07,16,16,19,26.60
2013,07,16,16,20,26.60
2013,07,16,16,21,26.70
2013,07,16,16,22,26.70
2013,07,16,16,23,26.80
2013,07,16,16,24,26.80
2013,07,16,16,25,26.80
2013,07,16,16,26,26.70
2013,07,16,16,27,26.70
2013,07,16,16,28,26.60
2013,07,16,16,29,26.60
2013,07,16,16,30,26.60
2013,07,16,16,31,26.60
2013,07,16,16,32,26.70
2013,07,16,16,33,26.80
2013,07,16,16,34,26.80
2013,07,16,16,35,26.90
2013,07,16,16,36,27.00
2013,07,16,16,37,27.10
2013,07,16,16,38,27.10
2013,07,16,16,39,27.10
2013,07,16,16,40,26.90
2013,07,16,16,41,26.80
2013,07,16,16,42,26.80
2013,07,16,16,43,26.70
2013,07,16,16,44,26.70
2013,07,16,16,45,26.70
2013,07,16,16,46,26.80
2013,07,16,16,47,26.80
2013,07,16,16,48,26.80
2013,07,16,16,49,26.80
2013,07,16,16,50,26.80
2013,07,16,16,51,26.80
2013,07,16,16,52,26.80
2013,07,16,16,53,26.70
2013,07,16,16,54,26.60
2013,07,16,16,55,26.60
2013,07,16,16,56,26.60
2013,07,16,16,57,26.60
2013,07,16,16,58,26.60
2013,07,16,16,59,26.70
2013,07,16,17,00,26.80
2013,07,16,17,01,26.90
2013,07,16,17,02,26.90
2013,07,16,17,03,27.00
2013,07,16,17,04,27.10
2013,07,16,17,05,27.10
2013,07,16,17,06,27.20
2013,07,16,17,07,27.30
2013,07,16,17,08,27.30
2013,07,16,17,09,27.30
2013,07,16,17,10,27.30
2013,07,16,17,11,27.30
2013,07,16,17,12,27.30
2013,07,16,17,13,27.30
2013,07,16,17,14,27.10
2013,07,16,17,15,26.60
2013,07,16,17,16,26.00
2013,07,16,17,17,25.50
2013,07,16,17,18,25.00
2013,07,16,17,19,24.50
2013,07,16,17,20,24.10
2013,07,16,17,21,23.70
2013,07,16,17,22,23.40
2013,07,16,17,23,23.10
2013,07,16,17,24,22.90
2013,07,16,17,25,22.80
2013,07,16,17,26,22.60
2013,07,16,17,27,22.40
2013,07,16,17,28,22.20
2013,07,16,17,29,22.20
2013,07,16,17,30,22.00
2013,07,16,17,31,21.80
2013,07,16,17,32,21.60
2013,07,16,17,33,21.50
2013,07,16,17,34,21.40
2013,07,16,17,35,21.30
2013,07,16,17,36,21.20
2013,07,16,17,37,21.10
2013,07,16,17,38,21.10
2013,07,16,17,39,21.10
2013,07,16,17,40,21.10
2013,07,16,17,41,21.10
2013,07,16,17,42,21.10
2013,07,16,17,43,21.20
2013,07,16,17,44,21.20
2013,07,16,17,45,21.30
2013,07,16,17,46,21.30
2013,07,16,17,47,21.40
2013,07,16,17,48,21.50
2013,07,16,17,49,21.60
2013,07,16,17,50,21.70
2013,07,16,17,51,21.80
2013,07,16,17,52,21.90